• In Belgium
  • List of Countries
  • For 7 days
  • Water Temperature
  • Satellite Maps
  • Weather Map
  • Weather Widgets
  • user-avatar
    Login

    Hourly Weather Kozani

    Today, 13 December, Wednesday

    Time Temperature Precipitation Wind Pressure Humidity
    00:00 +7°C° 0 mm 2 mps 707 mmHg 88%
    01:00 +7°C° 0 mm 2 mps 707 mmHg 88%
    02:00 +7°C° 0 mm 2 mps 707 mmHg 88%
    03:00 +7°C° 0 mm 2 mps 707 mmHg 89%
    04:00 +6°C° 0 mm 2 mps 706 mmHg 89%
    05:00 +6°C° 0 mm 2 mps 706 mmHg 89%
    06:00 +6°C° 0 mm 2 mps 707 mmHg 89%
    07:00 +6°C° 0 mm 2 mps 706 mmHg 89%
    08:00 +8°C° 0 mm 2 mps 707 mmHg 83%
    09:00 +9°C° 0 mm 2 mps 707 mmHg 78%
    10:00 +12°C° 0 mm 2 mps 707 mmHg 72%
    11:00 +13°C° 0 mm 2 mps 707 mmHg 68%
    12:00 +14°C° 0 mm 2 mps 707 mmHg 64%
    13:00 +14°C° 0 mm 2 mps 706 mmHg 60%
    14:00 +13°C° 0 mm 2 mps 706 mmHg 64%
    15:00 +12°C° 0 mm 2 mps 705 mmHg 68%
    16:00 +10°C° 0 mm 2 mps 705 mmHg 73%
    17:00 +10°C° 0 mm 2 mps 705 mmHg 75%
    18:00 +9°C° 0 mm 2 mps 705 mmHg 77%
    19:00 +9°C° 0 mm 2 mps 704 mmHg 79%
    20:00 +8°C° 0 mm 2 mps 704 mmHg 80%
    21:00 +8°C° 0 mm 2 mps 704 mmHg 81%
    22:00 +8°C° 0 mm 2 mps 704 mmHg 82%
    23:00 +8°C° 0 mm 2 mps 704 mmHg 82%

    Tomorrow, 14 December, Thursday

    Time Temperature Precipitation Wind Pressure Humidity
    00:00 +7°C° 0 mm 2 mps 703 mmHg 83%
    01:00 +7°C° 0 mm 2 mps 703 mmHg 83%
    02:00 +7°C° 0 mm 2 mps 703 mmHg 84%
    03:00 +7°C° 0 mm 2 mps 702 mmHg 86%
    04:00 +7°C° 0 mm 2 mps 702 mmHg 87%
    05:00 +6°C° 0 mm 2 mps 702 mmHg 87%
    06:00 +6°C° 0 mm 2 mps 702 mmHg 88%
    07:00 +6°C° 0 mm 2 mps 703 mmHg 88%
    08:00 +8°C° 0 mm 2 mps 703 mmHg 80%
    09:00 +9°C° 0 mm 2 mps 703 mmHg 73%
    10:00 +10°C° 0 mm 2 mps 704 mmHg 65%
    11:00 +12°C° 0 mm 2 mps 704 mmHg 60%
    12:00 +11°C° 0 mm 3 mps 703 mmHg 54%
    13:00 +12°C° 0 mm 3 mps 703 mmHg 49%
    14:00 +12°C° 0 mm 2 mps 703 mmHg 53%
    15:00 +10°C° 0 mm 2 mps 703 mmHg 57%
    16:00 +9°C° 0 mm 2 mps 703 mmHg 60%
    17:00 +8°C° 0 mm 2 mps 703 mmHg 63%
    18:00 +7°C° 0 mm 2 mps 703 mmHg 66%
    19:00 +7°C° 0 mm 2 mps 704 mmHg 69%
    20:00 +6°C° 0 mm 2 mps 704 mmHg 71%
    21:00 +6°C° 0 mm 2 mps 704 mmHg 73%
    22:00 +6°C° 0 mm 2 mps 704 mmHg 75%
    23:00 +6°C° 0 mm 2 mps 704 mmHg 76%

    Day after tomorrow, 15 December, Friday

    Time Temperature Precipitation Wind Pressure Humidity
    00:00 +5°C° 0 mm 2 mps 704 mmHg 77%
    01:00 +5°C° 0 mm 2 mps 704 mmHg 77%
    02:00 +5°C° 0 mm 2 mps 703 mmHg 77%
    03:00 +5°C° 0 mm 2 mps 703 mmHg 77%
    04:00 +5°C° 0 mm 2 mps 703 mmHg 76%
    05:00 +5°C° 0 mm 2 mps 703 mmHg 76%
    06:00 +5°C° 0 mm 2 mps 703 mmHg 75%
    07:00 +6°C° 0 mm 1 mps 703 mmHg 75%
    08:00 +8°C° 0 mm 1 mps 703 mmHg 69%
    09:00 +9°C° 0 mm 1 mps 703 mmHg 64%
    10:00 +11°C° 0 mm 1 mps 704 mmHg 59%
    11:00 +12°C° 0 mm 2 mps 703 mmHg 57%
    12:00 +13°C° 0 mm 2 mps 703 mmHg 56%
    13:00 +14°C° 0 mm 2 mps 702 mmHg 55%
    14:00 +13°C° 0 mm 2 mps 702 mmHg 60%
    15:00 +12°C° 0 mm 2 mps 702 mmHg 65%
    16:00 +10°C° 0 mm 2 mps 701 mmHg 71%
    17:00 +9°C° 0 mm 2 mps 701 mmHg 74%
    18:00 +8°C° 0 mm 2 mps 701 mmHg 77%
    19:00 +8°C° 0 mm 2 mps 701 mmHg 80%
    20:00 +7°C° 0 mm 2 mps 701 mmHg 81%
    21:00 +7°C° 0 mm 2 mps 701 mmHg 82%
    22:00 +7°C° 0 mm 2 mps 701 mmHg 83%
    23:00 +7°C° 0 mm 2 mps 701 mmHg 84%

    16 December, Saturday

    Time Temperature Precipitation Wind Pressure Humidity
    00:00 +7°C° 0 mm 2 mps 701 mmHg 85%
    01:00 +6°C° 0 mm 2 mps 701 mmHg 86%
    02:00 +6°C° 0 mm 2 mps 700 mmHg 87%
    03:00 +6°C° 0 mm 2 mps 700 mmHg 88%
    04:00 +6°C° 0 mm 2 mps 700 mmHg 89%
    05:00 +6°C° 0 mm 2 mps 700 mmHg 90%
    06:00 +6°C° 0 mm 2 mps 700 mmHg 90%
    07:00 +6°C° 0 mm 2 mps 700 mmHg 91%
    08:00 +8°C° 0 mm 2 mps 700 mmHg 85%
    09:00 +9°C° 0 mm 3 mps 700 mmHg 79%
    10:00 +11°C° 0 mm 3 mps 700 mmHg 73%
    11:00 +12°C° 0 mm 3 mps 700 mmHg 68%
    12:00 +12°C° 0 mm 3 mps 699 mmHg 64%
    13:00 +13°C° 0 mm 4 mps 699 mmHg 59%
    14:00 +12°C° 0 mm 3 mps 698 mmHg 64%
    15:00 +11°C° 0 mm 3 mps 697 mmHg 70%
    16:00 +10°C° 0 mm 3 mps 697 mmHg 75%
    17:00 +10°C° 0.4 mm 3 mps 697 mmHg 79%
    18:00 +10°C° 0.4 mm 3 mps 696 mmHg 83%
    19:00 +9°C° 0.4 mm 3 mps 696 mmHg 87%
    20:00 +9°C° 0.6 mm 3 mps 696 mmHg 88%
    21:00 +9°C° 0.6 mm 3 mps 695 mmHg 90%
    22:00 +9°C° 0.6 mm 3 mps 695 mmHg 91%
    23:00 +9°C° 0.6 mm 3 mps 695 mmHg 91%

    17 December, Sunday

    Time Temperature Precipitation Wind Pressure Humidity
    00:00 +9°C° 0.6 mm 3 mps 694 mmHg 91%
    01:00 +9°C° 0.6 mm 2 mps 693 mmHg 91%
    02:00 +9°C° 0.6 mm 2 mps 694 mmHg 91%
    03:00 +9°C° 0.6 mm 2 mps 694 mmHg 91%
    04:00 +8°C° 0.6 mm 2 mps 694 mmHg 91%
    05:00 +8°C° 0.1 mm 2 mps 695 mmHg 90%
    06:00 +8°C° 0.1 mm 3 mps 696 mmHg 89%
    07:00 +7°C° 0.1 mm 3 mps 696 mmHg 88%
    08:00 +8°C° 0 mm 3 mps 697 mmHg 78%
    09:00 +8°C° 0 mm 3 mps 698 mmHg 68%
    10:00 +9°C° 0 mm 3 mps 699 mmHg 59%
    11:00 +9°C° 0 mm 3 mps 699 mmHg 56%
    12:00 +10°C° 0 mm 4 mps 700 mmHg 53%
    13:00 +10°C° 0 mm 4 mps 700 mmHg 50%
    14:00 +9°C° 0 mm 3 mps 700 mmHg 54%
    15:00 +8°C° 0 mm 2 mps 700 mmHg 59%
    16:00 +7°C° 0 mm 2 mps 701 mmHg 63%
    17:00 +6°C° 0 mm 2 mps 701 mmHg 66%
    18:00 +7°C° 0 mm 1 mps 701 mmHg 69%
    19:00 +6°C° 0 mm 1 mps 702 mmHg 72%
    20:00 +6°C° 0 mm 1 mps 702 mmHg 74%
    21:00 +5°C° 0 mm 1 mps 703 mmHg 76%
    22:00 +3°C° 0 mm 2 mps 703 mmHg 78%
    23:00 +3°C° 0 mm 2 mps 703 mmHg 79%

    18 December, Monday

    Time Temperature Precipitation Wind Pressure Humidity
    00:00 +3°C° 0 mm 2 mps 704 mmHg 79%
    01:00 +2°C° 0 mm 2 mps 704 mmHg 80%
    02:00 +2°C° 0 mm 2 mps 704 mmHg 79%
    03:00 +1°C° 0 mm 2 mps 704 mmHg 79%
    04:00 +1°C° 0 mm 2 mps 704 mmHg 78%
    05:00 +1°C° 0 mm 2 mps 705 mmHg 77%
    06:00 +1°C° 0 mm 2 mps 705 mmHg 76%
    07:00 -1°C° 0 mm 2 mps 705 mmHg 75%
    08:00 +1°C° 0 mm 2 mps 706 mmHg 69%
    09:00 +2°C° 0 mm 2 mps 706 mmHg 64%
    10:00 +2°C° 0 mm 3 mps 706 mmHg 58%
    11:00 +2°C° 0 mm 3 mps 706 mmHg 56%
    12:00 +3°C° 0 mm 3 mps 706 mmHg 54%
    13:00 +3°C° 0 mm 3 mps 705 mmHg 52%
    14:00 +2°C° 0 mm 3 mps 706 mmHg 54%
    15:00 +2°C° 0 mm 3 mps 706 mmHg 56%
    16:00 +1°C° 0 mm 3 mps 706 mmHg 58%
    17:00 +1°C° 0 mm 2 mps 706 mmHg 60%
    18:00 +1°C° 0 mm 2 mps 706 mmHg 62%
    19:00 -1°C° 0 mm 2 mps 707 mmHg 63%
    20:00 -1°C° 0 mm 2 mps 707 mmHg 63%
    21:00 -2°C° 0 mm 2 mps 707 mmHg 63%
    22:00 -2°C° 0 mm 2 mps 707 mmHg 63%
    23:00 0°C° 0 mm 1 mps 708 mmHg 63%
    Show more